Location: Ida Center
(41.8662°N, 83.5713°W)
Time: 07:40:58
(UTC+00:00)

CZ-4 R/B - Pass Details

Date: 17 November 2019
Orbit: 530 x 601 km, 97.7° (Epoch: 15 December)

Event Time Altitude Azimuth Distance (km) Brightness Sun altitude
Rises 23:17:53 0° 146° (SE) 2,816 4.7 -12.4°
Reaches altitude 10° 23:20:09 10° 138° (SE) 1,911 3.8 -12.8°
Maximum altitude 23:23:58 36° 71° (ENE) 923 1.9 -13.5°
Drops below altitude 10° 23:27:44 10° 5° (N) 1,889 3.9 -14.1°
Sets 23:29:59 0° 357° (N) 2,779 4.8 -14.5°
